Wind_Speed
7 6 6 4 4 4 1 1 1 2 3 2 1 1 2 2 1 1 2 3 1 2 3 5 8 6 5 5 7 6 6 2 2 4 3 3 18 22 16 15 20 20 19 17 16 16 15 15 15 15 16 17 17 16 16 17 17 17 18 18 17 17 17 17 17 17 16 17 18 18 18 18 17 16 16 16 16 16 16 16 16 15 15 16 16 16 15 14 13 13 14 14 14 14 14 14 15
5 4 4 4 4 2 0 1 2 2 3 3 2 1 2 2 2 3 4 3 4 5 7 7 7 6 7 8 6 5 7 6 2 3 3 13 23 18 17 19 21 21 20 19 17 17 16 15 16 16 16 17 17 16 17 17 17 17 18 18 17 17 16 16 17 16 16 17 18 18 18 18 17 16 16 16 16 16 16 16 16 15 15 16 17 16 16 15 15 14 14 14 14 14 15 16 16
4 3 3 6 2 1 0 1 3 2 3 3 1 3 1 1 3 5 5 7 9 9 9 7 6 4 5 7 4 4 2 4 5 5 7 17 17 14 21 20 21 21 20 20 19 18 17 16 17 17 16 17 17 17 17 17 17 17 17 18 17 18 17 17 16 16 16 17 18 18 18 17 17 16 16 16 16 16 16 16 15 15 15 16 17 16 16 16 17 16 16 15 15 15 16 17 17
4 2 3 5 1 3 1 2 2 2 3 2 1 3 3 3 5 6 6 8 9 8 7 5 4 2 5 8 4 5 4 2 4 4 7 14 16 20 24 21 21 22 21 21 20 20 17 16 17 17 17 18 18 18 18 18 17 17 17 17 17 18 18 17 16 16 16 17 17 17 17 17 17 16 16 16 15 15 15 16 15 14 15 16 17 17 16 16 17 16 16 16 16 17 17 17 17
3 2 2 4 1 1 1 2 1 2 2 3 2 3 4 6 8 6 5 6 7 8 7 4 3 2 6 7 2 3 4 4 4 5 9 14 21 25 24 21 21 21 21 20 20 20 17 16 16 16 18 18 18 19 18 17 17 17 17 17 16 16 17 17 16 16 16 17 17 17 17 16 16 16 16 16 15 14 15 15 15 14 14 15 16 16 16 15 16 16 16 16 16 17 17 17 17
3 3 2 2 1 1 2 2 1 1 3 3 2 2 5 6 7 8 7 6 7 8 8 5 5 5 5 4 4 3 6 7 7 8 14 19 24 24 23 23 22 21 21 20 21 19 17 16 16 16 17 18 18 19 18 16 16 17 16 16 16 16 16 16 17 16 16 17 17 17 17 16 16 15 15 15 14 14 14 14 14 14 13 14 15 16 16 15 15 16 16 16 16 17 17 17 16
4 3 2 3 2 1 3 2 1 2 2 3 3 3 6 5 6 9 9 7 7 8 8 7 7 7 5 4 5 4 8 8 9 12 19 23 24 23 22 23 22 21 20 20 20 19 18 16 17 16 17 19 19 19 18 18 17 17 16 16 16 16 15 15 16 16 15 16 16 17 17 16 15 14 15 14 14 14 13 13 13 13 12 13 14 15 16 16 15 15 16 16 16 16 16 17 16
2 1 0 2 2 2 3 2 0 1 2 3 3 4 6 6 6 6 8 6 5 6 7 7 8 9 5 4 4 5 10 11 14 19 23 25 24 23 22 23 23 21 19 20 19 18 18 17 17 17 17 17 18 18 18 18 16 16 16 16 16 15 15 15 15 15 15 15 15 16 16 16 15 15 15 15 14 13 13 13 13 12 11 12 14 15 15 15 15 15 16 16 16 16 16 16 15
2 1 0 2 3 2 2 2 2 2 4 3 3 5 6 8 6 4 7 6 5 6 8 7 5 8 6 7 6 4 11 17 20 23 24 25 24 23 22 23 23 21 20 21 20 19 18 17 17 17 17 17 17 17 16 17 16 15 16 15 15 15 15 14 14 14 14 14 14 15 15 16 15 15 15 14 14 13 13 13 13 12 12 12 13 14 15 14 14 14 15 15 15 15 16 15 15
2 2 1 2 3 2 2 2 2 2 4 1 3 4 6 7 6 5 7 8 8 7 7 8 8 10 9 7 5 4 13 21 23 22 23 24 23 22 22 23 22 22 22 22 21 19 18 17 17 17 18 17 17 17 16 16 15 15 15 15 15 15 15 14 14 13 14 14 13 13 14 15 15 14 14 14 14 13 13 14 14 14 13 12 13 14 14 14 13 13 13 13 13 13 14 14 14
2 2 1 2 2 2 2 2 3 3 5 4 3 3 5 7 7 5 8 9 8 8 9 9 10 12 10 6 2 7 19 22 22 22 22 23 23 21 21 22 20 22 23 22 21 19 18 17 17 17 18 18 17 17 17 16 15 15 15 15 15 15 14 14 14 13 13 13 13 12 13 14 14 14 13 14 14 14 14 14 15 15 14 12 12 13 13 13 13 13 12 12 11 12 13 14 15
2 2 2 3 2 2 1 2 4 5 5 5 3 2 3 6 8 8 9 10 9 11 9 6 8 10 9 5 2 10 19 20 21 23 23 23 22 20 21 21 20 23 23 21 20 18 17 17 16 17 17 17 16 17 17 16 16 15 15 15 14 14 14 14 14 13 13 12 12 12 13 13 14 13 13 13 13 14 15 15 15 14 13 11 11 11 11 12 12 13 12 11 11 12 14 15 15
2 1 2 3 1 2 2 2 4 4 4 3 3 3 2 5 7 9 10 11 12 11 8 7 10 10 7 5 4 9 14 18 21 23 23 23 22 21 21 21 23 23 22 21 20 18 18 17 17 16 16 16 15 15 16 16 15 15 15 15 14 13 13 13 13 13 13 12 12 12 13 13 13 13 13 13 12 13 14 14 14 13 12 11 10 10 10 11 11 12 12 11 11 12 14 14 13
1 1 3 2 1 2 1 2 3 3 3 5 4 6 4 2 4 7 11 13 10 9 10 12 12 10 8 7 6 6 11 20 23 22 23 22 22 22 21 22 23 22 21 22 21 20 18 17 17 16 16 16 15 15 15 16 16 15 15 14 14 13 13 13 13 13 13 12 12 11 12 13 13 13 13 13 11 11 11 11 11 11 11 11 10 10 10 10 10 11 11 11 11 12 12 12 10
2 1 2 3 2 2 0 1 2 2 3 6 3 5 5 1 4 4 9 11 8 9 13 13 11 8 9 10 7 8 15 24 23 23 23 23 23 22 22 22 21 20 20 21 21 20 18 18 18 17 17 17 16 16 15 16 16 15 14 14 14 13 13 12 12 12 12 12 12 11 11 11 12 13 13 12 11 10 10 9 9 10 10 11 11 11 11 11 11 11 12 12 12 12 12 11 10
2 2 3 3 3 1 1 1 0 1 3 5 4 4 3 3 2 5 6 7 8 11 11 11 9 7 12 11 11 17 23 26 24 24 25 24 23 22 23 22 20 19 19 21 20 19 19 19 19 19 18 17 17 17 16 16 15 15 14 14 13 13 12 12 12 12 12 12 11 11 11 11 12 12 13 12 11 10 10 10 9 9 9 10 11 11 11 11 11 12 12 13 13 12 12 12 11
1 2 3 4 3 1 2 2 2 1 3 5 6 5 5 4 2 3 4 6 12 13 8 7 7 8 12 13 19 25 27 27 25 25 24 23 22 22 22 21 20 19 18 20 20 20 19 19 20 20 19 18 17 17 17 16 15 14 14 14 13 13 12 12 11 12 12 12 11 10 11 11 12 12 14 13 11 11 10 10 9 9 9 10 11 12 12 11 10 10 11 12 12 12 13 13 13
2 2 3 4 3 3 3 4 4 2 3 4 5 4 4 4 4 2 2 5 10 11 7 7 7 9 15 21 28 28 27 27 25 23 22 21 20 19 19 20 21 19 20 20 20 21 20 20 20 19 19 19 18 18 17 16 15 15 15 14 14 14 13 12 12 13 13 12 10 10 11 11 11 12 13 14 12 12 11 9 9 9 10 11 12 12 12 10 9 9 9 10 11 12 13 14 15
2 2 3 2 4 4 4 5 5 3 4 4 5 4 3 4 5 3 3 6 9 10 8 10 11 13 17 23 27 26 27 26 23 22 20 19 19 18 18 19 20 20 21 21 21 21 20 20 19 19 20 19 19 19 18 16 16 16 16 15 14 15 14 13 14 14 13 13 11 10 11 11 11 11 12 13 12 12 11 9 9 9 10 10 11 11 11 10 9 9 9 10 11 12 14 15 16
1 2 3 3 5 5 5 6 6 5 4 2 4 5 5 5 4 3 6 10 9 10 11 12 14 16 17 18 22 24 25 23 22 21 19 19 19 20 19 19 20 21 22 22 22 21 20 20 19 19 19 19 19 19 19 17 16 16 16 15 15 15 14 15 15 14 14 12 11 10 11 10 10 10 9 9 11 12 11 10 10 9 9 9 9 9 10 10 10 10 11 11 12 13 14 15 16
1 2 3 5 6 5 6 7 5 4 3 1 1 5 6 5 4 3 6 11 6 7 12 15 17 19 19 16 19 22 22 21 21 20 19 19 19 20 20 21 21 22 22 22 22 22 21 20 19 19 19 19 19 19 19 17 17 16 15 14 15 16 16 16 15 15 13 12 11 10 9 8 7 7 8 7 9 12 11 12 12 11 10 9 8 8 9 10 10 11 10 11 11 12 14 14 15
2 0 0 3 5 3 3 5 4 3 2 1 2 2 4 4 3 2 2 9 5 6 12 15 18 18 20 19 18 19 18 18 19 20 19 19 19 19 19 20 21 21 22 22 23 22 21 21 20 19 19 19 19 19 19 17 17 16 15 15 15 16 16 16 15 14 13 12 11 10 8 7 6 7 7 7 9 12 12 12 12 11 11 9 8 8 8 9 9 10 10 10 10 10 11 12 12
2 1 1 1 2 1 3 4 4 4 2 2 0 2 3 4 1 3 2 5 6 10 14 15 16 17 21 21 19 18 16 16 18 20 21 21 21 21 20 20 21 22 23 23 23 22 21 21 21 20 19 19 19 19 18 17 17 16 15 16 17 16 15 15 14 14 13 12 11 10 8 7 7 8 7 8 10 12 12 12 11 10 10 8 7 6 5 5 6 8 9 10 10 10 10 11 11
3 3 2 2 1 1 4 4 6 6 4 4 0 3 3 3 2 2 2 1 5 13 15 15 15 16 18 17 16 17 17 18 19 22 24 24 25 24 23 23 24 24 24 23 23 23 22 22 22 20 19 19 19 18 18 17 17 17 16 16 16 15 15 15 14 14 13 12 11 10 9 8 8 8 8 10 11 12 11 11 10 9 8 7 6 5 5 6 7 8 9 9 10 11 11 12 13
2 3 3 3 2 2 2 2 4 5 4 1 3 3 2 3 3 4 3 3 3 14 15 15 15 14 15 13 14 15 14 15 19 23 23 23 25 24 22 24 24 25 24 24 24 23 23 24 23 21 20 19 19 19 19 19 18 17 16 17 16 14 15 15 15 15 14 14 12 11 9 8 8 8 8 9 10 10 10 9 7 6 5 5 6 8 8 10 11 12 13 12 11 11 12 13 14
4 4 5 4 3 4 3 2 3 3 2 2 3 1 4 4 2 4 3 4 3 15 16 15 16 14 13 11 12 13 10 12 16 21 22 23 24 21 21 24 24 25 26 24 24 24 23 24 24 22 21 19 20 20 20 20 18 17 17 17 15 14 16 16 16 16 15 14 11 9 7 6 6 8 8 6 7 7 7 7 6 6 7 6 7 8 9 9 11 12 13 13 12 12 13 13 13
4 6 6 4 3 3 4 4 4 3 2 2 3 3 4 3 1 3 1 5 2 13 16 14 15 13 13 10 11 11 11 13 16 19 19 20 22 20 22 24 24 25 25 24 25 25 25 26 25 24 22 21 22 21 20 19 18 17 16 16 16 16 18 17 17 16 14 11 7 5 4 4 6 8 8 6 6 5 6 6 5 5 5 5 6 7 7 7 7 7 7 9 9 11 13 12 13
7 8 4 3 3 1 3 4 4 2 2 4 5 2 2 2 1 4 1 3 3 12 15 14 13 11 11 10 10 9 10 15 19 19 17 18 21 21 23 24 24 23 24 25 25 26 26 27 27 25 23 22 22 21 19 18 17 17 16 17 17 18 19 18 17 15 12 8 5 5 4 4 7 9 8 7 6 6 7 7 5 5 5 5 5 5 5 4 3 2 2 4 6 7 9 10 13
6 7 4 3 4 2 4 4 4 4 2 6 6 2 2 2 4 4 1 3 2 11 12 12 12 10 10 10 9 7 9 15 17 18 18 20 22 23 24 25 26 24 24 25 25 26 27 27 27 26 24 23 22 21 19 17 16 17 16 18 18 18 20 18 17 14 9 7 6 6 5 6 9 11 11 9 8 8 8 8 7 6 5 5 4 2 3 2 1 1 2 2 4 3 2 6 13
4 2 3 2 4 4 6 4 4 4 3 6 6 1 3 6 7 4 1 3 5 11 7 8 11 9 9 9 8 7 9 14 15 17 20 21 23 25 25 24 26 25 24 25 25 26 27 26 26 26 25 24 22 20 20 17 16 17 18 18 18 18 20 18 17 12 8 8 8 7 6 8 11 11 11 9 8 9 9 9 7 6 6 5 3 0 1 2 2 3 2 2 4 6 8 3 6
3 1 1 2 2 3 4 4 6 4 2 3 4 1 4 7 9 4 3 3 9 12 6 6 10 9 8 8 8 8 9 14 17 20 22 22 23 25 25 23 25 26 24 26 27 27 27 26 26 26 26 24 21 20 20 18 18 19 18 18 18 18 19 18 15 11 9 10 10 8 8 10 11 10 9 8 8 9 9 8 7 6 6 4 1 1 3 3 3 4 4 4 6 8 11 12 6
2 2 1 1 2 2 3 2 7 6 1 2 4 1 4 7 8 5 5 6 10 11 4 5 10 9 9 8 8 8 8 13 18 21 23 23 23 24 26 24 24 26 26 27 28 28 27 26 27 27 26 24 21 20 20 19 19 20 19 19 19 19 18 17 14 11 11 11 11 11 10 11 11 9 8 8 8 8 8 7 7 6 3 1 3 3 3 3 3 4 4 6 8 10 13 15 13
2 3 3 2 3 2 1 2 7 7 2 2 3 2 2 5 6 5 6 8 10 8 3 4 7 8 11 8 7 9 8 9 13 17 22 23 22 23 26 25 25 27 27 27 28 28 28 26 27 26 26 25 22 21 20 20 21 21 21 20 19 19 18 17 14 12 11 11 12 13 12 11 11 10 8 7 6 7 7 5 5 4 0 2 3 3 1 2 2 2 3 6 10 12 15 15 14
3 2 3 3 5 4 2 2 5 6 4 5 5 3 4 6 4 6 6 9 11 9 4 4 4 5 10 9 8 8 8 9 9 14 21 24 24 24 25 25 25 27 26 26 27 29 29 27 27 25 25 24 22 21 20 20 22 22 21 20 19 19 18 17 15 13 12 12 14 14 13 13 11 10 9 6 5 6 5 2 2 2 1 0 1 1 2 1 1 2 3 6 9 11 14 14 12
4 5 4 3 4 5 5 3 5 8 6 6 6 5 8 7 4 5 5 7 11 9 6 8 6 5 8 9 9 9 8 9 10 15 23 26 26 25 25 24 25 27 25 24 26 28 28 27 26 24 24 23 22 22 21 21 22 22 21 19 19 19 18 18 17 16 14 13 16 15 14 14 12 11 9 6 5 6 4 1 2 2 1 1 1 1 2 1 2 4 4 5 8 10 12 12 11
8 9 5 4 4 3 5 3 6 11 7 5 8 7 8 7 6 6 5 5 8 8 6 9 7 5 9 10 8 9 9 9 12 19 25 26 27 27 25 23 24 27 26 24 24 26 26 26 25 24 23 23 22 23 23 22 22 21 20 19 19 19 18 19 19 18 16 15 16 15 14 14 13 12 9 6 7 7 5 3 4 2 1 2 2 2 2 1 2 4 4 5 8 8 11 11 10
8 7 4 5 6 3 3 3 6 11 7 6 10 7 6 6 6 7 6 5 5 6 7 7 7 6 8 9 8 10 9 9 14 20 24 25 26 27 26 24 23 25 26 25 24 24 26 27 26 24 23 24 24 25 25 24 24 23 21 21 21 19 20 20 20 19 17 16 17 16 15 14 15 13 10 8 8 8 6 4 4 2 1 2 1 2 2 1 1 4 3 5 9 9 10 10 9
8 7 5 4 5 4 5 5 8 10 6 5 7 5 7 6 6 6 6 6 5 6 7 6 6 6 6 7 9 10 8 8 12 14 19 23 23 24 25 24 24 25 27 27 25 24 25 25 26 25 25 24 25 26 26 26 27 26 24 24 22 21 21 21 20 19 16 16 18 19 16 15 16 14 11 9 8 7 6 5 4 2 2 2 1 2 2 2 2 2 3 4 7 9 9 9 9
7 5 6 4 3 2 2 3 7 9 4 3 6 6 7 5 5 7 6 6 4 4 6 6 6 6 4 6 8 10 9 8 9 10 16 21 21 22 24 24 24 25 27 28 25 24 24 24 24 25 26 25 25 26 27 27 27 26 25 24 23 22 22 21 19 18 15 15 20 21 17 16 17 15 12 10 9 8 7 5 3 2 3 3 3 3 2 1 1 1 3 4 5 6 6 8 10
3 3 4 3 4 3 2 3 7 8 3 2 6 4 4 3 2 3 2 3 2 1 2 3 4 5 5 4 5 8 10 10 9 10 13 17 19 20 22 23 24 24 26 26 25 24 24 24 24 24 24 24 24 25 26 27 25 25 23 22 22 21 20 19 16 16 13 15 21 22 18 17 18 17 14 12 10 8 7 4 2 3 3 3 4 3 2 0 1 1 2 3 5 5 5 7 9
2 2 4 3 7 8 4 4 6 4 1 2 6 3 4 2 3 3 1 1 3 1 1 1 2 2 4 3 3 5 9 11 10 11 11 14 17 20 22 24 24 24 25 26 26 25 24 25 25 24 23 23 24 25 25 25 23 23 21 18 18 17 15 14 13 14 13 15 23 23 18 17 17 17 15 13 11 9 7 4 3 4 3 4 4 3 2 2 2 3 1 2 3 4 4 5 6
5 3 5 5 9 9 5 9 8 3 2 4 5 4 4 4 3 6 2 2 4 1 2 4 3 3 4 5 4 3 6 9 10 11 12 13 17 20 23 25 25 24 25 27 27 26 25 25 25 24 23 24 24 25 25 24 23 23 20 17 18 18 15 13 13 13 13 18 24 22 18 18 17 15 13 12 11 11 8 5 5 5 3 3 5 3 2 2 3 5 3 3 3 2 2 4 5
3 4 5 5 7 5 10 12 8 4 4 5 4 4 2 4 4 7 4 4 6 3 3 6 4 5 5 5 4 2 5 8 10 10 11 14 17 20 22 24 25 24 25 27 27 25 25 25 25 24 23 24 24 24 25 24 24 23 20 19 20 20 17 15 14 13 16 23 24 20 18 18 16 14 12 11 11 11 9 6 7 7 5 4 4 4 4 3 3 3 1 2 1 1 1 3 4
3 7 4 2 4 5 12 13 7 4 3 2 4 4 2 2 5 6 6 6 6 5 6 6 5 5 5 6 5 3 4 7 10 11 11 13 17 20 23 24 26 25 26 28 27 26 26 26 25 24 23 24 23 24 25 25 25 24 22 19 19 20 18 16 14 13 19 24 22 19 19 17 15 13 12 11 12 11 9 7 8 9 8 6 5 5 5 3 2 1 3 3 2 1 2 2 1
6 7 1 3 4 8 11 10 5 2 4 2 5 3 2 3 4 1 5 5 6 8 8 8 7 6 6 7 6 3 4 7 10 12 11 13 17 22 25 26 26 27 28 28 28 28 27 26 25 25 24 24 24 23 25 25 25 24 23 20 18 18 18 17 15 14 18 23 20 18 19 18 16 15 13 12 13 11 9 9 10 11 11 9 6 5 5 4 3 4 6 4 3 3 4 2 2
6 2 4 6 5 7 7 7 5 3 4 3 7 5 2 4 4 1 3 3 6 8 8 8 8 7 7 7 6 4 4 6 9 11 12 15 20 23 26 27 27 28 29 29 28 29 29 27 26 26 25 25 24 24 25 26 25 25 24 21 18 18 17 17 16 14 17 22 21 18 19 18 16 16 15 13 13 11 10 11 10 10 12 12 9 6 6 4 3 4 6 5 5 6 5 4 3
3 3 5 5 3 4 4 2 4 4 1 5 8 6 4 1 4 3 3 4 6 6 5 6 7 7 7 6 5 5 5 6 9 10 12 16 22 24 25 26 27 28 29 28 28 29 30 30 29 28 27 26 25 24 25 26 26 25 26 24 20 19 18 17 17 16 16 21 21 18 18 17 16 17 16 14 14 13 13 12 11 9 11 12 12 9 6 5 5 5 6 5 5 6 5 4 4
3 4 4 4 4 3 4 4 4 4 2 6 6 3 5 2 4 5 5 6 5 6 7 8 9 8 6 5 5 5 4 6 8 9 11 13 16 20 22 24 24 26 28 28 29 29 30 31 30 29 28 27 26 25 26 26 26 26 26 25 23 21 20 19 18 17 16 19 21 19 18 18 17 18 17 16 16 16 15 14 12 11 10 10 12 11 8 7 7 6 6 6 6 7 6 5 4
5 5 5 5 3 4 3 4 3 1 3 5 2 3 3 2 5 5 6 8 6 7 8 9 11 9 8 7 6 5 4 5 6 7 10 11 12 14 18 21 22 24 28 29 29 29 29 30 31 30 29 29 28 27 27 26 26 26 26 26 25 23 22 21 20 17 16 18 21 20 21 21 20 19 19 18 17 17 17 15 13 13 12 11 11 11 10 10 9 7 5 5 6 7 6 4 3
4 5 4 5 3 2 0 3 2 2 4 5 2 3 1 3 4 3 7 8 7 6 7 9 11 10 10 9 7 5 4 4 5 4 1 6 10 14 18 21 21 23 28 30 29 29 29 29 31 31 30 29 29 28 28 27 26 26 25 25 26 25 24 23 21 18 17 19 19 20 22 23 22 20 20 19 17 17 17 16 15 15 14 14 12 11 11 11 10 7 5 5 5 6 5 5 5
3 5 5 5 4 4 3 3 1 3 4 3 3 1 2 2 3 5 6 5 4 4 5 7 8 8 9 8 6 5 4 5 9 5 2 5 7 13 19 20 20 23 27 29 29 30 29 29 31 31 29 29 30 29 29 28 27 26 25 25 25 25 25 25 23 20 19 19 19 19 21 22 21 20 20 19 17 18 18 16 15 15 15 14 13 12 12 11 10 8 7 6 5 4 4 6 7
3 2 6 3 4 5 2 3 4 3 1 1 2 0 2 3 3 4 2 4 4 5 6 7 7 7 8 7 7 6 4 6 10 10 7 6 11 13 16 18 18 23 27 27 29 30 29 30 31 31 31 31 30 30 30 29 28 27 27 26 25 24 24 25 24 21 19 20 19 19 21 20 18 18 19 19 17 17 19 17 16 15 15 14 13 13 13 12 11 10 9 8 7 6 5 6 6
1 2 3 3 4 7 3 2 1 3 3 1 0 1 1 1 2 4 4 6 4 5 6 8 8 8 9 8 8 7 5 7 10 11 10 9 13 13 16 18 18 23 28 26 28 31 31 31 31 31 31 30 31 30 30 30 29 28 28 27 26 25 24 25 26 23 20 20 21 21 21 20 18 18 19 20 19 17 18 19 18 17 17 17 15 15 14 13 12 11 9 8 8 9 8 7 6
4 1 4 2 2 3 4 1 3 3 2 2 1 2 1 1 1 2 3 6 5 5 6 7 8 9 10 9 9 9 7 7 10 12 11 12 14 13 18 20 17 22 29 29 30 31 31 32 33 32 31 31 32 32 30 30 30 29 28 28 28 27 25 25 25 24 21 22 23 23 22 21 20 19 19 21 21 21 20 21 21 19 19 20 18 16 15 13 12 11 9 9 9 9 8 7 6
4 4 4 3 2 1 1 2 1 1 1 1 2 1 2 3 3 4 5 6 6 7 7 7 8 8 8 8 8 8 8 7 8 9 8 10 11 13 19 21 19 22 24 26 30 31 30 32 32 33 34 34 34 33 31 30 30 30 29 29 30 30 27 25 25 23 22 25 26 23 22 23 23 22 21 21 22 23 23 23 22 20 21 21 19 17 15 13 12 12 11 10 10 9 9 8 7
1 3 2 2 3 3 2 3 3 2 2 1 1 2 3 3 5 6 7 7 8 8 7 7 7 7 6 6 6 6 7 7 7 7 7 7 9 15 20 21 22 24 18 17 26 29 29 30 31 32 32 32 32 32 31 31 30 30 29 27 29 31 28 25 24 23 22 25 26 22 20 23 24 24 23 22 21 22 23 24 22 21 21 21 19 17 15 13 12 13 13 12 11 9 9 9 8
2 3 3 2 1 2 1 1 1 3 3 3 3 2 4 5 4 6 7 7 8 8 7 6 5 5 5 4 6 6 6 7 7 7 8 8 9 15 21 21 23 27 24 23 27 29 30 30 30 32 31 29 30 31 31 31 31 31 29 28 29 31 29 26 25 24 23 24 24 23 22 22 24 25 24 24 22 20 22 24 22 20 20 20 18 17 16 13 13 13 13 13 11 10 9 9 9
6 5 5 4 3 3 2 1 3 1 4 4 5 3 5 5 3 6 7 6 7 7 8 6 5 6 5 4 5 6 6 7 7 7 7 7 9 13 17 19 22 27 30 30 27 26 29 30 30 31 31 30 31 32 31 31 31 31 31 29 30 31 30 27 27 26 25 24 23 23 24 24 25 25 24 26 25 21 21 23 21 19 20 19 18 17 16 15 15 15 15 14 13 11 11 10 9
Wind_Direction
118 124 134 137 146 150 140 99 72 345 76 78 323 308 266 241 274 204 219 226 161 165 153 133 148 153 141 124 136 104 41 82 158 149 204 171 145 147 140 148 157 150 149 148 143 141 141 140 136 134 132 132 132 134 134 132 131 129 127 124 121 119 119 119 118 117 117 118 119 120 119 119 120 122 123 123 123 124 126 126 127 130 131 129 127 129 133 136 135 133 134 135 134 131 129 129 127
118 121 136 142 163 159 230 136 93 1 56 65 325 238 243 315 297 220 208 166 95 99 98 101 110 101 97 105 126 91 33 17 49 122 115 133 137 143 144 153 157 151 152 148 144 141 140 138 136 136 134 133 134 135 135 136 136 132 128 125 124 123 121 119 117 116 116 117 119 119 119 120 121 123 122 123 124 126 128 127 128 130 131 130 129 130 133 134 133 133 136 138 136 133 130 130 130
126 133 157 161 157 68 112 35 88 48 67 91 283 247 246 274 209 183 173 120 104 107 98 93 83 71 83 75 52 68 53 22 69 98 116 135 137 150 152 155 157 155 155 150 147 143 139 137 137 137 137 135 135 136 136 139 138 133 130 127 127 126 124 122 119 119 116 116 118 118 120 121 123 124 123 123 125 129 130 129 130 132 133 131 129 129 130 131 131 133 135 136 135 134 131 131 132
158 158 182 178 93 30 64 43 106 110 99 144 189 228 222 180 157 142 141 118 112 108 94 88 62 15 82 92 80 76 102 84 84 100 130 148 147 152 153 154 157 157 157 153 148 143 139 137 136 139 140 139 139 138 137 141 138 133 131 128 129 128 125 124 122 120 118 115 115 118 121 122 124 125 125 124 125 129 130 130 132 134 134 131 130 129 129 129 130 132 134 134 134 134 132 132 132
161 176 199 180 102 44 95 68 90 96 143 177 156 214 201 148 129 125 120 110 106 98 99 104 79 75 94 104 128 102 116 118 118 115 126 144 147 151 153 153 154 157 158 154 149 143 140 138 136 140 142 142 142 139 140 140 137 135 132 130 130 128 126 125 123 122 119 116 114 118 120 122 124 125 125 125 127 129 129 131 133 135 135 132 130 130 130 128 129 132 133 132 132 133 133 133 133
138 136 125 120 105 162 76 63 37 332 218 168 173 206 159 131 125 123 114 105 89 92 103 101 103 105 89 67 49 119 146 125 128 129 129 137 145 151 153 151 151 154 159 158 153 144 141 142 139 141 142 144 144 141 141 140 138 137 133 132 130 127 124 123 124 123 120 117 115 118 120 121 121 123 124 125 128 131 131 132 133 135 134 131 130 130 131 130 130 132 132 131 132 133 134 134 135
146 135 72 65 51 36 74 78 89 297 258 170 192 154 133 127 125 122 118 114 90 93 100 97 111 100 75 76 64 113 134 122 131 135 135 139 144 149 150 148 148 154 159 160 156 145 143 146 144 144 145 147 146 145 143 141 141 139 135 134 130 127 124 123 124 124 122 119 118 118 120 121 122 123 122 125 129 133 134 133 135 134 132 131 130 129 130 131 131 133 132 132 133 134 136 136 136
129 154 114 87 58 24 80 63 230 211 269 228 185 128 127 118 118 120 120 121 101 102 102 105 108 90 68 78 83 113 115 119 130 133 137 139 144 147 149 147 148 155 157 159 155 145 147 148 147 147 147 147 145 144 142 140 142 141 137 134 130 128 126 125 125 124 123 121 121 120 119 122 123 124 122 124 129 134 137 138 139 134 133 132 129 127 129 131 132 135 134 134 135 136 139 139 138
61 61 152 85 81 30 68 28 308 220 260 242 126 115 122 118 121 117 111 102 98 106 106 117 106 96 93 83 94 109 108 121 128 132 139 140 144 146 148 150 153 157 155 156 154 147 150 150 148 148 148 146 143 143 141 140 142 140 135 132 131 130 129 127 126 125 126 124 123 122 122 122 123 123 123 125 128 132 135 140 142 138 136 133 130 129 130 132 133 134 134 136 137 137 140 143 142
35 19 98 64 82 37 34 5 319 262 270 248 99 110 131 134 133 121 112 106 111 110 99 100 92 106 115 98 99 114 120 128 130 133 141 142 144 143 149 156 158 156 154 154 152 149 152 151 148 149 150 148 145 144 144 143 141 137 135 134 132 132 131 129 129 129 130 128 126 125 124 124 123 123 123 124 126 127 130 134 138 141 140 135 131 130 132 135 134 133 134 137 140 139 140 144 145
42 354 81 63 64 57 41 340 311 297 304 331 31 87 144 144 122 115 112 111 112 110 113 100 96 113 113 101 82 122 130 134 135 138 144 145 145 144 150 158 160 155 152 153 151 151 152 152 150 149 151 150 148 146 146 144 141 139 137 136 135 135 134 132 132 132 133 132 129 128 128 128 126 125 124 124 124 125 128 130 132 137 137 133 131 131 134 138 138 136 136 140 144 143 142 145 146
77 339 61 78 76 81 32 329 309 310 327 345 351 35 135 139 119 128 122 120 120 120 136 124 120 126 111 105 123 133 136 140 142 142 145 146 146 146 152 158 157 153 152 152 150 152 153 153 150 149 152 152 150 148 147 146 143 140 138 138 138 138 137 135 134 134 135 134 133 131 132 132 130 129 127 125 125 126 128 129 132 135 135 133 133 134 137 139 141 141 141 145 145 144 146 148 148
107 132 74 81 69 66 22 327 306 321 340 319 291 348 85 126 125 140 129 128 135 137 152 138 131 127 112 120 139 145 147 149 146 144 147 147 145 146 152 155 154 153 153 153 153 154 156 153 150 151 154 151 149 148 147 146 143 140 139 139 138 139 138 137 137 137 138 138 138 135 133 134 135 134 129 127 127 128 128 129 132 134 135 133 134 139 142 141 142 142 142 145 145 145 149 149 149
121 140 94 88 40 61 28 324 323 351 334 293 306 348 346 111 136 148 131 139 151 148 141 138 136 118 116 131 144 166 157 154 152 150 149 146 144 143 146 150 152 154 155 156 157 156 156 154 152 153 153 150 149 149 147 145 143 142 140 139 139 140 139 139 140 139 141 142 142 140 136 135 139 140 134 130 130 131 131 131 130 131 134 136 141 145 146 145 144 143 144 147 148 149 151 150 150
139 127 87 100 86 81 249 288 331 351 309 287 310 343 309 192 126 138 140 148 155 143 134 142 145 121 143 157 161 172 160 159 157 151 146 142 143 142 144 148 151 153 157 159 158 157 157 157 156 155 154 153 152 150 148 146 145 144 141 140 139 139 139 141 142 141 143 145 145 146 144 139 142 146 142 135 134 137 138 139 137 137 140 141 145 147 146 146 146 148 147 148 151 153 155 155 155
146 117 78 89 80 80 227 218 229 275 269 268 287 344 333 290 117 135 171 155 136 145 146 155 159 139 157 161 153 156 158 159 154 146 141 139 141 141 145 148 149 152 157 159 157 158 159 159 159 158 157 156 155 152 149 148 146 145 143 143 141 140 141 143 144 144 145 146 149 151 153 151 147 149 151 145 141 144 145 146 148 148 148 146 145 146 145 145 146 148 147 148 151 156 160 163 165
112 81 86 96 99 181 212 193 175 206 256 267 297 2 25 301 280 130 177 152 142 151 148 150 151 137 145 143 145 151 154 154 152 148 142 141 141 139 144 147 150 154 157 159 159 160 159 159 159 158 159 157 155 153 150 147 146 147 146 147 146 145 144 146 147 147 149 150 154 158 161 160 153 151 156 153 147 149 149 149 154 158 155 152 150 148 146 144 145 146 147 149 154 160 165 169 173
80 73 93 111 142 202 196 186 199 213 255 270 299 348 26 310 304 27 120 140 144 143 133 138 127 117 126 133 144 150 149 151 155 150 142 144 144 143 148 151 154 156 156 160 162 161 160 160 159 158 159 159 157 154 150 148 151 152 151 152 151 150 148 151 154 153 155 155 156 157 155 154 149 150 156 158 153 149 149 152 157 159 157 155 154 152 149 149 151 152 153 156 160 165 168 173 177
102 108 99 149 178 197 199 194 203 207 230 257 291 315 0 307 305 11 103 130 136 131 132 136 120 114 123 134 145 149 149 153 154 145 142 148 150 150 152 155 158 157 157 161 164 165 163 160 160 160 159 161 160 156 155 155 157 157 156 156 154 153 155 159 161 161 162 158 154 147 140 137 136 141 150 157 159 154 152 156 159 160 160 159 157 154 153 154 156 156 155 158 163 166 169 173 178
155 118 119 211 193 191 206 207 204 204 223 234 290 318 336 298 313 13 111 117 128 136 138 137 130 130 136 142 147 149 151 154 152 145 147 154 154 156 157 158 160 161 161 163 167 169 167 163 163 162 161 163 161 160 161 161 161 162 161 160 160 159 162 165 166 167 165 160 155 144 135 130 128 131 136 150 163 162 159 161 162 165 166 163 159 155 153 153 155 156 157 161 166 168 170 174 179
109 128 176 200 175 188 203 207 210 203 228 208 308 331 325 311 355 359 112 112 127 146 143 144 140 140 143 148 150 153 153 153 155 151 152 157 160 162 162 164 165 166 164 164 169 172 171 167 165 164 164 164 165 166 164 164 165 166 166 165 164 162 164 168 169 171 169 165 161 151 142 135 129 132 135 149 164 163 162 163 163 167 168 166 162 158 155 154 154 156 161 167 172 176 179 181 186
76 125 205 159 162 192 183 189 208 196 253 343 11 342 302 321 30 325 122 123 157 151 143 145 142 143 146 152 154 155 155 156 161 158 157 162 165 167 167 166 166 167 166 167 172 176 174 171 167 167 166 166 170 170 165 166 167 169 170 166 163 162 165 168 169 173 171 166 164 158 152 145 144 149 149 157 162 161 161 160 160 163 165 164 161 161 163 165 166 169 175 178 181 189 195 197 198
93 209 53 82 163 173 157 175 199 190 199 168 219 306 310 342 68 225 206 150 161 142 140 142 142 146 147 151 155 157 161 164 166 165 165 167 169 171 171 170 169 169 170 172 176 178 177 173 170 170 170 170 172 171 167 166 168 170 169 166 167 168 168 168 169 173 169 164 161 156 153 151 154 155 158 165 162 159 158 157 157 159 162 161 161 167 178 190 198 201 204 202 202 210 218 222 219
108 179 164 161 146 156 180 177 191 195 193 178 112 353 349 345 0 305 282 185 148 138 138 141 144 146 148 153 157 160 166 167 169 169 170 170 174 176 174 175 174 173 172 174 177 178 178 176 174 174 174 172 173 173 170 169 171 172 171 171 174 175 173 172 171 170 166 161 157 154 151 152 155 159 165 167 164 161 160 162 162 166 171 172 183 207 234 252 256 252 246 241 236 236 240 243 240
163 182 163 160 132 159 207 183 197 216 213 169 34 6 293 261 312 321 290 333 118 140 139 144 146 148 155 162 159 160 165 163 162 166 170 173 175 176 177 178 176 175 175 175 177 177 180 180 178 178 176 175 174 175 174 173 175 176 177 179 180 180 175 172 171 166 162 161 159 156 153 155 160 166 169 165 166 168 168 172 181 198 219 230 241 248 260 269 275 277 274 270 268 268 268 265 261
215 174 149 157 159 159 180 227 225 232 230 117 66 309 262 254 291 293 274 356 89 143 143 149 151 155 164 166 160 158 158 153 151 159 167 170 173 172 173 178 177 178 178 177 176 177 181 182 181 182 180 178 177 177 179 179 181 184 184 184 184 179 170 169 169 164 165 164 160 158 159 171 182 182 182 182 186 185 188 203 221 239 256 265 264 262 266 272 278 284 283 278 278 284 289 286 277
173 142 141 146 149 153 160 220 231 228 243 164 147 211 258 278 270 271 322 33 102 149 147 155 155 159 165 160 158 157 157 156 153 155 158 165 172 169 169 176 179 181 178 176 178 177 180 183 183 184 183 182 181 181 184 184 185 189 190 187 185 176 168 170 169 167 168 164 161 171 181 203 210 202 198 205 210 216 221 222 225 236 251 257 263 267 266 271 281 292 291 288 289 289 292 291 278
138 130 112 95 73 49 171 208 219 193 240 189 166 194 288 330 202 237 51 49 190 162 152 158 157 159 160 157 158 157 159 160 157 157 160 165 171 170 170 177 180 181 178 178 180 177 179 183 185 187 187 185 185 186 186 187 189 190 190 185 181 173 170 173 171 170 170 167 169 173 186 215 209 200 199 206 211 221 215 203 201 210 218 215 233 255 253 255 273 296 312 321 315 299 289 277 264
129 125 104 86 43 336 211 206 204 178 211 187 155 67 316 262 220 232 4 10 180 158 155 156 155 157 157 156 159 160 158 158 159 164 169 169 171 173 174 179 181 179 179 181 180 178 179 183 185 187 188 188 189 189 186 188 190 188 185 180 178 174 173 175 173 173 174 180 177 168 198 216 202 196 198 201 203 207 198 186 185 189 186 174 177 214 224 238 265 94 99 354 339 358 339 255 244
114 100 94 93 35 315 226 188 169 173 208 187 156 123 254 239 238 237 70 19 97 133 160 169 156 155 158 154 157 161 154 156 162 168 171 168 170 177 179 182 183 178 179 182 182 182 181 182 184 185 188 190 191 191 189 190 191 186 182 179 179 175 175 175 173 174 176 177 172 167 189 191 186 192 194 192 191 190 178 166 168 165 153 146 140 151 329 346 18 59 61 1 15 52 49 28 238
136 112 50 100 86 293 249 173 153 165 228 161 127 186 240 238 236 217 136 93 108 133 179 192 161 154 159 156 154 160 156 159 166 169 171 167 166 177 181 181 183 180 177 181 186 187 184 183 184 184 187 191 190 189 190 193 192 187 184 181 180 177 177 176 173 175 172 168 168 161 159 167 176 184 182 177 175 174 164 156 159 148 137 136 114 342 6 13 28 43 28 2 27 48 41 42 49
149 151 230 178 182 276 304 196 168 167 249 109 110 203 257 251 229 195 150 120 120 145 182 181 165 162 162 162 156 158 163 163 166 171 173 171 167 173 178 177 180 182 179 182 188 189 185 183 184 185 187 190 188 186 189 192 190 188 186 183 182 180 180 179 173 172 168 165 171 163 150 159 173 172 167 168 166 165 161 156 155 150 144 271 305 310 345 21 27 36 22 0 24 37 34 44 55
259 202 208 181 185 231 294 238 193 169 141 140 160 191 261 267 224 177 159 139 140 161 174 156 165 167 164 166 162 160 166 164 168 173 171 173 172 170 175 176 179 182 180 182 186 185 183 182 185 188 189 190 187 185 191 191 187 188 187 184 184 183 183 180 174 172 173 172 176 172 157 158 167 166 160 160 164 168 163 156 165 168 195 294 293 295 331 55 3 7 23 11 24 31 34 46 54
253 240 247 217 183 187 177 217 209 175 159 185 194 213 250 271 227 174 170 152 158 174 164 144 154 165 168 169 168 166 166 166 171 171 166 172 177 174 174 176 180 182 180 183 187 184 183 185 187 191 192 190 187 190 192 187 185 187 187 186 185 185 183 180 177 176 180 180 180 179 169 165 167 163 158 146 154 175 168 146 181 181 81 104 300 264 158 83 331 326 5 23 30 32 34 42 42
192 216 239 238 180 184 193 181 189 177 175 191 189 231 255 267 254 198 183 157 164 176 156 154 173 183 175 171 172 171 165 168 174 167 164 169 176 177 177 175 178 180 178 181 185 184 185 187 187 190 194 191 189 192 189 182 184 187 187 188 187 186 185 182 182 181 183 181 182 185 179 176 174 166 161 141 135 167 176 134 146 164 153 119 27 157 177 292 321 333 356 24 35 41 36 34 32
188 209 191 181 179 205 212 178 176 170 165 196 189 213 243 245 234 212 198 166 164 172 155 160 180 177 169 174 177 172 167 170 172 165 162 167 173 177 178 174 173 178 178 177 179 183 185 186 186 190 193 191 187 187 185 182 185 187 188 191 190 189 187 187 188 186 185 182 186 193 188 185 182 173 167 148 140 155 156 137 140 136 152 131 54 137 178 270 313 335 360 22 23 40 41 35 27
204 209 170 183 190 206 218 182 178 162 152 216 206 207 239 235 217 207 191 171 166 171 164 167 175 163 168 177 172 170 173 175 172 166 163 166 170 174 176 172 168 173 177 175 175 180 182 184 187 190 191 188 184 183 184 186 189 188 188 192 191 190 191 194 195 192 189 186 190 200 201 194 186 180 172 156 149 148 130 129 154 143 118 135 89 156 186 232 291 329 0 24 17 24 34 34 25
215 196 166 184 197 210 216 178 172 162 154 225 206 201 249 246 208 201 180 169 188 185 171 170 173 167 175 181 170 168 172 174 172 164 162 165 167 171 175 171 165 166 174 178 178 179 181 184 188 191 190 188 185 184 184 189 192 190 188 188 189 192 195 198 197 193 193 197 200 206 209 200 188 183 176 165 161 154 137 135 160 171 161 173 199 198 242 270 254 302 352 16 20 18 25 34 29
198 163 148 178 203 204 235 165 159 163 172 235 185 187 252 264 198 193 181 171 191 190 171 169 169 162 164 179 173 167 167 174 174 160 162 168 166 167 171 170 166 165 171 179 181 182 182 183 186 190 192 191 188 187 187 188 191 191 189 186 187 192 196 198 198 194 200 211 210 208 207 199 192 188 183 176 171 161 154 149 157 182 190 210 236 230 247 283 198 244 6 4 10 15 29 42 37
184 117 131 197 200 164 195 198 167 167 174 159 155 173 284 315 153 176 184 163 157 107 150 158 177 165 148 175 175 164 171 176 171 161 164 169 164 160 164 168 167 163 168 175 180 183 185 186 189 190 193 194 190 190 190 188 189 190 190 188 190 193 196 201 203 200 210 220 213 208 202 197 198 198 198 195 187 174 166 163 179 202 210 228 227 219 229 89 72 19 25 6 2 9 22 39 43
294 174 162 179 190 194 196 153 140 151 220 122 117 73 319 298 172 192 336 67 128 79 92 101 272 208 143 169 192 165 176 177 168 165 166 166 161 158 162 165 166 164 166 173 179 184 188 190 193 194 196 196 192 190 190 188 185 186 189 193 198 200 202 207 207 206 216 217 208 203 199 199 201 203 207 209 207 196 180 178 208 213 223 231 213 209 263 285 315 319 311 296 325 349 8 19 31
319 252 209 205 198 197 142 113 114 110 256 223 130 81 294 276 222 218 231 128 162 158 174 178 240 237 163 176 200 172 183 181 170 166 163 161 157 157 162 164 166 168 169 173 179 185 190 192 194 196 197 196 194 191 189 187 183 182 186 194 200 203 206 205 205 211 215 206 199 195 194 198 200 202 208 213 212 204 193 198 220 219 214 212 212 230 260 267 306 311 288 257 286 304 348 5 11
331 259 223 240 241 197 137 132 130 146 214 227 164 126 258 279 261 229 199 171 193 213 218 202 206 212 188 184 191 180 194 185 172 168 161 159 156 155 162 167 168 171 173 176 179 184 191 194 195 196 197 199 198 193 190 190 188 187 190 195 201 204 202 199 202 208 205 197 191 187 189 195 199 203 211 213 206 200 197 209 231 227 209 201 224 239 240 255 308 322 245 194 194 213 304 0 18
244 251 197 189 249 175 144 146 150 179 181 197 188 146 119 264 259 225 172 169 208 223 227 226 217 208 199 193 185 185 212 189 171 168 164 161 159 158 163 169 172 173 175 177 179 183 190 195 196 197 199 200 201 198 193 193 193 193 195 200 207 208 203 200 196 192 193 190 185 186 190 193 198 208 214 204 194 196 202 219 239 231 216 217 231 230 230 253 289 232 170 171 168 192 298 322 55
243 255 121 85 145 141 139 151 168 176 119 159 230 178 119 260 278 238 146 166 218 226 220 219 216 209 205 199 185 194 225 198 175 169 166 165 162 162 166 170 173 174 174 176 180 185 190 194 196 197 199 199 201 201 197 197 198 197 200 206 211 210 207 204 195 185 188 188 186 190 194 193 200 211 207 191 190 202 212 226 240 231 219 220 225 223 229 254 284 232 203 201 219 244 270 254 185
253 249 81 61 88 116 119 145 155 102 107 201 233 194 148 274 279 132 133 197 228 227 219 210 206 204 207 201 187 208 224 198 182 170 165 168 166 166 167 169 173 175 176 177 180 184 187 190 193 194 198 199 200 203 201 201 201 200 204 210 215 213 209 207 202 195 192 191 190 193 197 199 201 203 196 189 198 211 217 227 239 231 220 219 219 222 231 246 253 216 211 228 249 249 249 235 225
228 61 76 54 44 82 79 109 113 82 76 242 231 190 138 323 272 211 173 215 213 203 210 202 196 200 204 194 186 214 215 186 183 174 167 169 169 169 168 169 173 175 177 177 178 182 183 186 189 191 196 198 199 203 204 204 204 204 207 211 217 216 211 210 209 207 203 197 196 197 199 202 198 194 195 198 207 213 219 229 236 229 219 221 220 218 228 240 228 217 227 242 249 245 243 253 267
126 74 74 49 0 24 28 360 45 80 258 259 243 179 112 105 262 240 219 239 217 186 196 190 186 192 187 182 201 227 218 179 174 171 170 167 168 170 169 172 175 172 173 176 177 179 180 183 186 188 193 196 198 203 205 207 207 207 209 212 216 217 214 216 214 216 217 207 203 203 204 205 199 195 199 204 210 216 221 226 229 226 222 221 216 214 226 241 235 237 246 247 247 242 242 266 285
90 92 81 74 7 5 11 333 359 132 244 262 245 106 92 230 251 235 217 238 236 200 192 181 179 179 169 180 211 231 223 178 158 163 172 168 167 172 172 174 174 169 170 174 176 178 178 182 185 186 191 194 197 201 205 209 210 209 211 213 216 217 218 221 220 223 226 216 209 209 210 208 204 203 205 209 213 218 221 223 225 226 222 220 218 218 231 242 241 245 251 242 239 234 239 264 273
124 141 119 112 101 66 271 286 333 280 266 284 299 95 82 286 278 233 200 216 223 195 178 172 173 170 166 179 201 217 214 154 100 66 197 183 172 171 175 178 173 167 171 173 175 177 177 181 185 187 191 194 196 199 203 208 211 212 213 214 216 216 218 221 222 225 228 220 214 213 212 210 210 212 211 212 216 217 222 228 231 230 223 223 230 230 232 238 238 238 231 219 217 218 235 253 245
180 166 131 132 145 143 191 200 167 249 268 306 330 63 146 202 251 239 201 193 188 151 146 155 159 159 159 172 187 192 191 130 104 97 300 282 221 182 174 180 175 168 171 173 174 177 178 180 184 186 189 193 196 198 202 207 211 213 214 214 215 215 217 218 219 225 227 221 218 214 209 209 212 215 215 217 220 221 227 233 235 232 223 224 234 231 228 233 233 231 227 222 221 219 226 236 238
274 130 102 138 179 146 154 186 177 197 194 342 331 307 201 203 259 291 130 130 127 119 127 136 143 151 151 166 185 185 183 139 129 155 184 242 248 211 176 175 175 169 172 175 175 177 179 180 184 186 188 192 197 199 201 205 209 211 212 212 213 214 216 216 217 225 225 219 219 211 204 206 209 210 214 218 222 226 232 234 232 230 223 221 228 228 228 233 233 233 234 237 238 232 227 229 237
301 73 127 208 176 129 114 273 274 87 110 253 299 97 320 338 322 339 63 111 123 119 140 151 151 156 158 173 188 189 188 158 150 169 177 196 226 211 173 170 171 168 173 177 177 179 181 182 183 186 188 191 196 200 201 203 206 208 210 211 211 211 215 217 219 224 222 215 214 209 204 207 211 214 219 222 224 230 234 233 233 232 225 220 224 228 231 235 236 232 227 229 230 228 231 237 250
123 135 197 188 64 79 90 103 332 41 127 269 31 132 203 124 244 310 87 118 143 154 165 166 160 164 169 180 189 189 190 177 169 173 175 187 203 190 169 172 171 169 175 179 180 183 184 184 185 186 188 191 195 199 202 203 204 206 210 212 212 212 215 220 223 226 226 216 212 211 211 213 216 221 227 228 227 230 234 235 235 233 224 220 223 227 229 233 230 219 216 224 226 230 238 245 256
130 162 179 108 84 318 54 151 246 40 153 319 11 274 219 172 206 212 161 155 166 172 175 172 172 179 182 185 191 190 184 183 182 177 172 177 182 176 172 173 169 169 176 180 182 184 185 187 188 188 191 194 195 198 202 205 206 206 210 214 215 214 216 220 223 228 229 220 214 215 219 222 221 222 229 232 228 229 232 233 233 230 221 218 222 226 228 230 222 212 217 228 230 234 243 247 252
98 138 156 103 145 170 173 175 165 150 172 147 117 252 250 221 217 195 178 174 168 171 177 175 176 181 185 185 186 188 182 184 187 180 177 175 169 172 175 175 172 171 175 182 184 186 187 187 190 191 194 196 195 197 200 204 208 208 210 213 215 216 218 221 220 222 221 216 214 216 222 225 222 221 229 231 228 230 231 228 227 226 220 218 221 225 228 227 220 217 221 226 231 235 241 246 247
144 171 197 191 127 117 154 197 151 144 149 142 152 220 263 255 218 182 179 180 176 173 164 161 163 162 173 179 170 174 181 188 192 182 179 178 172 175 177 176 174 173 179 190 192 191 189 188 191 192 194 195 195 197 199 202 205 207 209 212 214 215 218 221 219 219 216 212 213 217 221 224 222 222 228 228 227 231 230 223 222 222 219 218 221 224 227 222 218 222 222 225 232 234 236 240 240
165 184 195 173 141 109 119 280 291 141 130 147 152 183 256 264 215 175 176 178 181 168 149 153 170 168 176 193 176 169 175 183 189 185 182 177 173 179 180 175 173 174 181 191 194 189 188 190 193 193 193 195 197 198 199 201 202 204 206 210 212 214 217 221 219 219 219 215 215 218 222 226 228 228 230 229 228 229 225 221 220 219 217 220 222 222 223 221 219 222 222 224 230 231 233 233 232
Height
781 781 781 782 781 782 784 785 801 804 805 821 821 818 810 800 802 802 801 796 795 789 781 783 784 787 792 795 798 800 801 803 808 817 819 805 798 803 804 806 808 809 810 812 813 814 814 815 815 816 816 816 817 817 818 818 818 819 820 820 820 821 821 822 822 821 821 821 822 822 822 822 822 822 822 822 822 822 822 823 823 823 822 823 823 823 822 822 822 823 823 823 824 825 825 826 826
781 782 780 781 780 784 789 786 806 813 812 826 822 817 807 800 804 801 798 795 792 786 779 782 783 785 787 788 791 796 802 801 799 801 803 799 801 804 805 807 808 809 811 812 813 815 815 816 816 817 817 817 818 819 819 819 819 820 820 821 821 822 822 823 822 822 822 822 822 823 823 823 823 823 823 823 823 823 823 824 823 823 823 824 824 824 823 823 824 824 824 824 825 825 826 827 828
781 781 780 782 780 783 789 790 808 819 821 829 821 811 803 805 804 796 793 788 785 781 780 782 784 786 787 794 795 800 807 801 797 797 799 801 802 804 807 807 808 810 811 813 814 815 816 816 817 817 818 818 819 819 820 820 820 821 821 822 822 823 823 823 823 823 823 823 823 824 824 824 824 824 824 824 824 824 824 824 824 824 824 824 825 825 824 825 825 825 825 825 826 826 827 828 829
780 780 780 781 784 788 793 800 810 817 824 826 820 808 801 803 797 792 788 783 780 778 782 784 789 787 787 800 799 801 807 802 799 797 799 801 801 804 806 808 809 811 812 813 815 816 816 817 817 818 819 819 819 820 820 821 821 822 822 823 823 823 824 824 824 824 823 823 824 824 825 825 825 825 825 825 825 825 825 825 825 825 825 825 826 826 826 826 826 826 826 826 827 827 828 829 830
780 780 779 779 789 793 796 806 810 815 818 816 813 804 797 795 791 790 785 781 779 780 783 786 794 789 786 796 796 802 805 801 800 797 799 801 802 804 806 808 810 811 813 814 815 816 817 818 818 819 820 820 820 820 821 822 822 823 823 823 824 824 824 824 824 824 824 824 824 825 825 826 825 826 826 826 826 825 826 826 825 825 825 826 827 827 827 827 827 827 827 828 828 829 829 830 831
779 779 779 779 786 788 799 812 814 815 808 805 807 798 793 790 788 788 784 782 779 780 782 786 793 792 794 794 792 799 799 799 800 798 799 801 804 805 807 809 810 812 813 814 816 817 818 819 819 819 820 821 821 821 822 823 823 823 824 824 824 824 824 824 825 825 824 825 825 826 826 826 826 826 826 826 826 826 826 827 826 826 826 827 828 828 828 828 827 828 828 829 829 830 830 831 832
778 781 782 785 788 789 807 817 815 815 801 797 800 793 791 788 785 786 786 787 785 783 782 786 787 794 803 798 797 798 795 797 797 799 800 802 805 806 808 809 811 813 814 815 817 817 818 819 819 820 820 821 822 822 823 823 824 824 824 824 825 824 825 825 825 825 825 825 826 827 827 827 827 827 827 827 827 827 827 827 827 826 827 828 828 829 829 829 828 829 829 830 831 831 832 832 833
777 782 783 791 800 800 811 815 812 812 799 791 791 787 788 786 784 786 789 790 791 788 786 788 785 798 807 798 804 802 795 799 797 801 802 803 806 807 809 810 811 813 814 816 817 818 819 820 820 821 821 822 822 823 823 823 824 825 825 825 825 825 825 826 826 826 826 826 827 828 828 827 827 827 828 828 828 827 828 828 827 827 827 828 829 830 830 830 829 829 830 831 832 832 833 833 835
777 782 785 793 806 808 812 815 810 806 799 790 786 784 783 782 782 786 790 791 791 790 790 789 786 801 809 802 807 801 796 801 800 803 803 806 807 808 811 811 812 813 815 816 817 818 819 820 821 822 822 822 823 823 824 824 825 825 825 825 825 826 826 827 826 827 827 827 828 829 829 828 828 828 828 828 828 828 828 828 828 828 828 829 830 831 832 831 830 830 830 831 832 833 834 835 835
779 782 788 797 806 814 816 816 811 804 796 787 784 784 782 781 782 786 790 792 790 791 791 787 789 801 808 808 808 801 800 801 801 804 805 807 808 810 811 812 813 813 815 816 817 818 819 821 820 822 822 823 824 824 825 825 826 826 826 826 826 827 827 827 827 827 827 828 828 829 830 830 829 829 830 830 829 829 829 829 829 829 828 829 831 832 833 832 832 831 831 831 832 834 835 836 836
787 786 788 803 813 819 822 819 813 805 796 787 784 782 782 780 783 787 789 792 790 792 792 789 797 802 805 811 809 802 800 802 803 805 807 808 810 811 812 813 815 815 816 817 818 819 820 821 821 822 822 823 824 825 826 826 826 826 827 827 827 827 827 828 828 828 828 828 829 829 830 830 830 830 831 831 830 830 830 830 830 830 830 830 831 833 834 834 833 833 832 832 832 833 835 836 837
792 794 792 810 820 821 822 821 815 806 798 792 788 782 779 779 784 789 790 794 791 794 793 790 797 799 808 815 808 803 801 803 804 805 808 809 811 812 813 814 815 816 817 818 819 820 820 821 822 822 823 823 824 825 826 826 827 826 827 827 828 828 828 828 828 829 829 829 829 830 831 831 831 831 831 831 831 831 831 831 831 832 832 832 832 833 834 835 834 834 835 834 833 834 835 836 837
792 796 798 813 819 820 822 821 817 809 802 796 791 782 778 780 785 786 788 792 792 796 793 786 789 794 808 814 806 804 802 803 804 806 808 809 811 812 814 815 816 817 818 819 819 820 821 821 822 823 823 824 824 825 826 826 827 827 828 828 828 829 829 829 829 830 829 829 830 831 831 831 832 832 832 832 832 832 832 833 833 833 833 834 833 834 835 835 835 835 836 836 835 835 836 837 838
789 792 799 815 818 821 823 822 819 814 809 798 790 784 780 781 783 781 785 794 794 791 787 780 783 794 807 811 810 807 802 803 804 807 808 810 812 813 815 816 817 818 818 819 819 820 821 822 823 823 824 824 825 825 826 826 827 827 828 828 829 829 830 830 830 830 830 830 831 831 832 832 832 833 833 833 833 834 834 834 834 834 835 835 835 835 835 835 836 836 837 837 837 837 837 837 838
786 789 797 814 821 823 823 823 822 820 813 797 789 788 785 779 777 781 783 791 791 780 779 781 780 794 805 808 811 804 800 803 804 806 808 810 812 813 815 816 818 818 819 820 820 821 821 822 822 823 824 824 825 825 826 826 827 828 828 829 829 829 830 831 831 831 831 831 831 832 833 833 833 833 833 834 834 835 835 835 835 835 836 836 837 836 836 836 836 837 838 838 838 838 838 839 839
781 787 801 816 825 825 821 820 821 821 811 796 789 788 789 779 773 781 777 777 785 777 778 785 780 786 795 798 800 797 799 802 803 806 807 810 812 814 815 816 819 819 820 820 821 821 821 822 822 824 824 824 825 825 826 826 827 828 828 829 829 830 831 831 831 832 832 832 832 832 833 833 834 834 834 834 835 835 835 835 836 836 836 837 838 838 838 837 837 838 839 840 840 840 840 840 841
778 789 806 818 827 824 818 817 817 816 806 795 789 789 793 786 774 774 769 770 781 782 781 784 780 780 786 790 793 794 799 801 803 806 807 810 812 814 816 817 818 819 820 821 821 821 821 822 822 823 824 824 825 825 826 826 827 828 828 829 829 830 831 832 832 832 832 832 833 833 833 833 834 835 835 835 835 836 836 836 836 836 837 838 839 839 839 839 838 839 840 841 841 841 842 842 843
785 797 809 818 823 817 811 811 807 805 803 796 791 791 793 790 781 772 773 778 780 783 785 784 783 782 784 788 792 795 798 801 803 805 807 810 811 813 815 816 818 818 820 820 821 821 821 822 822 823 824 824 825 825 826 826 827 827 828 829 829 830 831 832 832 832 833 833 833 833 833 834 834 835 836 836 836 836 836 836 836 836 837 838 839 840 840 840 839 839 840 842 842 843 843 844 844
790 800 810 815 813 806 802 802 800 800 799 796 792 789 790 789 783 774 781 789 784 788 790 787 789 789 788 790 793 796 797 800 802 804 807 808 810 812 814 815 817 818 819 819 820 821 821 822 822 823 823 824 824 825 826 826 827 827 828 829 829 831 831 832 832 833 833 833 833 833 833 834 835 836 836 837 837 837 837 837 837 836 836 837 839 840 841 841 841 841 841 842 843 844 844 844 845
789 796 809 809 802 801 798 797 797 796 794 795 793 787 787 785 780 777 784 790 789 792 792 791 795 794 793 792 793 795 797 799 801 804 806 807 809 810 812 814 815 816 817 818 819 820 821 821 822 823 823 824 825 825 826 827 828 828 828 829 830 831 831 832 832 833 833 833 833 833 833 834 835 836 836 837 838 838 838 838 838 837 837 837 838 839 841 842 842 841 841 842 843 844 844 845 845
788 792 802 798 795 799 796 795 795 792 793 793 791 789 788 782 779 781 784 792 796 792 786 787 791 791 792 793 793 795 797 799 801 803 805 807 808 810 811 812 813 815 816 817 818 819 820 821 821 822 823 824 825 825 826 827 828 829 829 829 830 831 831 832 833 833 834 834 834 834 834 834 835 835 836 837 838 839 839 839 839 838 838 837 838 838 840 841 842 842 842 842 843 843 844 845 845
790 792 793 791 794 798 793 793 793 792 792 791 790 791 788 782 783 786 785 793 795 787 781 781 782 785 788 791 793 795 797 799 800 802 804 806 807 809 810 812 813 814 815 817 817 818 819 820 821 822 823 824 825 826 826 828 828 829 829 830 830 831 832 832 833 834 834 834 834 835 835 835 835 836 836 837 838 839 839 840 839 840 839 839 838 838 839 841 842 843 843 843 843 844 844 845 845
791 795 790 791 793 794 793 793 793 792 792 790 790 788 785 786 788 786 784 787 783 776 776 778 779 781 784 788 792 794 796 798 799 801 802 804 806 807 809 810 812 813 815 816 817 818 819 820 821 822 822 823 825 826 827 828 828 829 829 830 831 831 832 832 833 834 834 835 835 835 836 836 836 836 836 837 838 839 839 840 840 841 841 841 840 839 839 840 842 843 844 844 844 845 845 845 844
790 795 791 791 791 791 791 791 791 791 790 788 786 786 787 791 790 784 783 781 775 773 774 776 779 780 783 787 790 793 794 796 798 800 801 802 804 805 807 808 810 812 814 815 817 817 818 819 820 821 822 823 824 825 826 827 828 829 830 830 831 831 832 832 833 834 835 835 835 836 836 837 837 837 837 838 839 839 840 840 841 842 842 842 842 841 840 840 841 841 842 843 844 844 844 844 844
788 792 790 789 791 790 789 790 791 791 788 786 786 790 790 788 787 785 783 779 774 772 774 776 779 781 784 786 788 790 792 794 796 798 800 801 803 805 806 808 809 811 812 814 815 817 818 819 820 821 821 822 824 825 826 827 828 829 829 830 831 832 832 832 833 834 834 835 836 836 837 837 838 838 838 839 840 840 841 841 842 842 843 843 843 842 841 841 841 841 841 841 841 842 842 842 842
785 786 788 789 791 789 789 790 790 790 788 787 789 793 790 784 785 787 781 777 774 772 776 778 780 784 785 786 787 788 791 793 794 797 799 801 803 804 806 807 808 810 811 812 814 816 817 818 819 820 821 822 823 824 825 826 827 828 829 830 831 831 832 832 833 834 834 835 836 837 837 838 838 838 839 840 840 841 841 842 842 842 843 843 843 842 842 842 842 841 841 840 840 840 839 839 839
777 783 787 787 790 788 790 791 790 790 788 787 791 794 789 783 788 793 782 775 775 776 779 779 781 785 785 786 787 787 790 791 793 796 798 800 802 803 804 806 807 808 810 812 813 815 816 818 819 820 821 822 823 824 825 826 826 827 829 830 831 831 832 833 833 834 835 836 836 837 837 838 838 839 839 840 840 841 841 842 842 842 843 843 843 842 843 843 843 842 841 841 841 840 839 839 839
775 782 788 790 791 790 791 792 791 791 790 787 788 793 790 787 791 792 782 776 775 778 781 780 782 785 784 786 787 788 789 791 793 794 797 799 800 801 803 804 805 808 809 810 812 814 815 816 818 819 820 821 822 823 824 825 826 827 828 829 830 831 832 833 834 835 835 836 836 837 837 837 838 838 839 840 840 841 841 842 842 843 843 843 843 843 843 844 843 843 843 843 842 840 839 839 839
779 781 790 796 795 794 792 790 789 790 791 784 786 799 800 795 792 786 780 777 774 779 783 782 783 784 784 786 787 788 789 790 792 793 795 796 798 800 801 802 804 806 808 809 811 812 814 815 817 819 820 821 821 822 824 825 826 827 828 829 830 831 832 833 834 835 836 836 837 837 837 837 837 838 839 840 841 841 842 842 843 843 843 843 843 843 843 844 844 844 843 843 842 841 840 839 839
786 786 791 799 802 799 790 788 789 790 790 781 788 809 809 796 788 782 779 777 777 784 787 784 783 784 785 786 787 788 788 789 791 792 794 795 797 798 800 802 803 805 807 809 810 811 813 815 816 818 819 820 821 822 823 824 825 826 827 828 830 831 832 833 834 835 836 836 837 837 837 837 837 838 839 840 841 841 842 842 843 843 843 843 843 843 843 843 843 843 842 842 842 841 840 839 839
790 794 795 801 807 801 789 788 791 794 790 781 791 811 807 793 785 782 779 777 780 787 789 786 784 784 785 786 787 789 787 788 789 791 793 794 796 797 799 801 802 804 805 807 809 810 812 814 815 817 818 819 820 822 823 824 825 826 827 828 830 831 832 833 834 835 836 836 837 838 837 837 838 838 839 840 840 841 842 842 842 843 843 843 843 843 843 842 842 842 841 841 841 840 839 838 838
791 800 806 806 804 800 794 789 789 794 791 783 795 810 804 791 784 781 778 777 782 787 788 785 784 785 785 786 787 788 788 787 788 790 791 793 795 796 798 800 801 803 804 806 808 809 812 813 815 816 817 818 820 821 822 823 825 826 827 828 829 831 831 832 834 835 836 836 837 838 838 838 838 839 839 840 841 841 841 842 842 842 843 843 843 843 842 842 842 842 841 841 840 840 839 838 838
794 798 808 808 805 804 800 791 785 788 791 790 797 806 803 791 782 780 779 778 782 787 787 785 784 785 785 786 786 787 789 788 789 789 790 792 794 795 797 798 800 801 803 804 806 808 811 813 814 815 816 818 819 821 822 823 824 825 827 828 829 830 831 832 833 834 835 836 837 838 838 838 838 839 840 840 841 841 841 842 842 843 843 843 843 842 842 842 842 842 841 841 840 840 839 838 839
801 799 804 802 802 804 802 797 789 786 792 795 797 802 799 790 784 782 780 778 781 786 787 785 784 785 784 784 786 787 788 789 789 788 789 791 793 795 796 797 799 800 802 803 805 807 809 811 813 814 815 817 819 820 821 823 824 825 826 828 829 830 831 832 833 834 835 836 837 838 838 838 839 839 840 840 841 841 841 842 842 842 843 843 843 842 842 842 842 842 841 841 841 840 839 839 839
802 801 802 800 798 801 800 796 790 787 794 797 800 805 798 790 787 784 781 778 780 784 785 784 783 784 785 784 785 786 787 788 787 786 788 790 792 794 795 797 798 800 802 803 804 806 808 811 812 813 815 816 819 820 821 823 823 825 826 827 829 830 830 831 832 833 835 836 836 837 838 838 839 839 840 840 841 841 842 842 842 842 843 843 843 842 842 842 842 842 841 841 841 841 840 840 840
791 791 794 797 796 798 794 789 784 785 796 799 800 803 797 792 790 786 782 780 781 783 782 783 784 783 784 784 785 785 786 786 784 784 786 788 790 792 794 796 798 800 801 803 804 806 808 810 811 813 814 815 818 819 820 821 822 824 825 827 828 829 830 831 832 833 834 835 836 837 838 838 839 839 840 841 841 841 842 842 842 842 842 842 842 842 842 842 842 842 842 841 841 841 841 841 841
779 784 790 790 790 793 787 785 782 781 795 800 795 797 795 791 789 786 783 782 783 785 784 784 784 783 783 784 784 784 784 783 781 783 785 787 789 791 793 795 797 799 801 802 804 805 806 808 810 811 813 815 817 818 819 820 821 823 824 825 826 828 829 830 832 833 834 834 835 836 837 838 839 840 840 840 841 841 842 842 842 842 842 842 843 843 843 843 843 842 842 842 842 841 841 841 841
774 781 788 788 788 787 780 782 782 780 791 797 793 798 796 789 788 786 783 784 785 784 784 785 783 783 782 782 783 783 782 781 781 783 784 786 788 790 792 794 796 798 800 802 803 804 806 807 809 810 812 814 816 817 818 819 820 821 822 824 826 827 828 830 831 832 833 834 835 836 837 838 839 839 840 840 841 841 842 842 842 842 842 843 843 843 843 843 843 843 842 842 842 842 842 842 842
770 775 782 787 786 784 781 781 782 782 789 794 794 800 797 788 787 786 783 784 783 781 781 781 781 782 782 781 782 782 782 782 782 783 784 785 787 789 791 793 795 797 799 801 802 803 805 807 808 809 811 813 815 817 817 818 820 820 822 824 825 827 828 830 831 832 833 834 834 835 836 837 838 839 840 840 841 841 841 842 842 843 843 843 843 843 843 843 843 843 843 843 843 843 843 843 843
765 768 774 782 782 783 785 785 786 785 787 791 794 798 797 790 789 787 785 783 781 781 780 779 779 779 780 780 779 781 782 783 783 783 783 784 787 788 790 792 794 796 798 800 801 803 804 806 807 808 810 812 814 816 817 818 820 821 823 825 826 827 828 830 831 832 832 832 833 834 835 836 838 839 839 840 840 841 841 842 842 843 843 843 843 843 843 843 843 843 843 843 843 843 843 844 844
766 763 767 775 777 776 777 782 788 789 790 788 793 806 804 795 795 793 788 785 783 783 782 781 780 778 778 778 778 779 779 780 781 782 782 783 785 787 789 791 793 795 797 798 800 801 803 804 806 807 809 811 813 815 817 818 820 821 823 824 826 827 828 829 829 830 831 831 832 833 835 835 837 838 838 839 840 840 841 841 842 842 843 843 843 843 843 843 843 843 843 843 843 844 844 844 844
771 763 758 762 767 770 775 782 791 804 807 791 791 816 816 798 796 796 790 789 787 786 785 784 782 780 779 778 778 777 777 777 778 779 780 781 783 786 788 790 792 794 796 797 799 800 802 803 805 807 808 810 812 814 816 818 819 821 822 823 823 824 826 827 827 828 829 829 831 832 834 834 835 836 837 838 839 839 840 840 841 842 842 843 843 843 843 843 843 843 843 843 843 844 844 844 844
777 762 751 754 759 767 777 783 793 810 811 789 785 807 815 804 797 793 790 791 790 788 788 785 782 781 779 778 777 777 777 777 776 776 777 779 782 785 787 789 791 793 794 796 798 799 801 802 804 806 807 809 811 813 815 817 818 820 821 821 822 822 824 825 826 827 827 828 830 831 832 833 834 835 836 837 838 838 839 840 841 841 842 842 843 843 843 843 843 843 843 843 843 844 844 844 844
773 753 747 756 758 765 775 780 787 793 792 788 786 793 806 807 797 789 788 792 793 790 789 786 783 781 778 776 776 777 777 776 776 776 776 777 780 782 785 788 789 791 793 795 797 798 799 801 803 804 806 808 810 812 814 816 817 819 820 821 821 822 823 824 826 827 827 828 829 830 831 832 833 834 835 836 837 838 838 839 840 841 841 842 842 842 843 843 843 843 843 843 843 844 844 844 844
761 744 748 755 756 764 770 776 783 781 787 801 795 790 804 807 795 790 790 793 796 792 787 786 783 780 778 775 775 775 775 773 773 774 775 775 777 780 783 785 788 790 792 793 795 797 798 800 802 803 805 807 809 811 813 814 816 817 819 820 820 821 822 824 825 826 827 827 828 829 830 831 832 833 834 835 836 837 838 839 840 840 841 841 842 842 842 842 843 843 843 843 843 843 843 843 844
748 741 750 756 759 765 768 775 780 781 793 804 795 788 801 807 798 795 797 795 794 789 784 783 781 780 777 774 774 774 772 772 771 771 772 773 775 778 780 783 786 788 790 792 793 795 797 798 800 802 804 806 808 809 811 813 815 816 818 819 820 820 821 823 824 825 826 827 827 828 829 830 831 832 833 834 835 836 837 838 839 840 840 841 841 841 841 842 842 842 842 842 842 842 843 843 843
741 744 754 760 765 768 770 775 776 788 800 795 785 781 789 804 801 793 794 788 782 782 783 782 780 779 777 774 773 773 771 770 770 769 770 771 773 776 779 781 783 786 788 790 792 793 795 797 798 800 802 804 806 808 810 812 814 815 816 818 819 820 821 822 823 824 825 826 826 827 828 830 831 832 833 833 835 836 837 838 838 839 839 840 840 840 841 841 841 841 841 841 841 841 842 842 842
743 751 758 767 775 773 777 780 780 799 807 789 780 777 783 802 799 785 782 776 771 775 777 778 779 779 777 775 774 772 770 769 768 769 769 770 773 774 777 779 781 784 786 788 790 792 793 795 797 799 800 802 804 806 808 810 812 814 815 817 818 819 820 821 822 823 824 825 825 826 828 829 830 831 832 833 834 835 836 837 837 838 838 839 839 840 840 840 840 840 840 840 841 841 841 842 842
749 757 765 782 798 798 799 801 799 807 802 783 778 780 788 799 788 776 775 770 767 767 767 771 774 775 776 775 774 771 769 768 767 769 769 769 771 773 775 777 779 782 784 786 789 790 792 794 795 797 799 800 802 804 807 808 810 811 813 815 816 817 819 820 821 822 823 824 825 826 827 828 829 830 831 832 833 834 835 836 836 837 837 838 838 839 839 839 840 840 840 840 840 841 841 841 841
756 761 768 786 806 818 822 820 816 812 797 781 777 781 795 800 783 771 769 764 761 760 762 766 767 770 773 772 772 769 768 768 770 773 775 772 770 771 773 775 777 779 782 784 787 789 791 793 794 796 797 799 801 802 805 807 808 809 811 813 814 815 817 818 820 821 822 823 824 825 826 827 828 829 830 831 832 833 834 835 835 836 836 837 838 838 839 839 839 839 840 840 840 840 840 841 841
755 755 761 775 788 804 815 816 818 814 800 789 784 788 802 802 783 767 761 759 759 760 761 763 764 767 769 770 770 769 768 770 772 777 781 779 774 771 771 773 776 778 780 783 785 787 789 791 793 795 796 798 800 801 803 805 806 808 809 811 812 814 815 817 818 819 821 822 823 824 825 826 827 828 829 830 831 832 833 834 834 835 835 836 837 837 838 838 839 839 839 839 839 839 839 840 840
758 751 761 771 769 777 792 797 798 800 801 799 794 794 794 785 772 763 760 761 761 763 763 764 767 768 768 771 771 769 769 770 773 776 779 780 779 775 772 772 775 777 779 781 783 785 787 789 791 793 795 797 799 800 801 803 805 807 808 810 811 813 815 816 817 818 819 820 821 822 823 825 826 827 828 829 830 831 832 833 833 834 834 835 836 837 837 838 838 838 838 839 838 839 839 839 839
759 758 765 762 752 760 782 792 785 789 805 805 798 800 792 782 777 767 764 767 766 767 767 766 767 768 769 771 769 768 768 768 771 773 774 775 777 776 772 772 774 775 777 780 782 783 785 787 789 791 793 795 797 799 800 802 804 805 807 808 810 812 813 815 816 817 818 819 820 821 822 823 824 826 827 828 829 830 831 831 832 833 834 834 835 836 836 836 837 837 837 838 838 838 838 838 839
754 764 758 750 752 758 773 793 796 799 813 809 801 806 802 798 794 777 769 774 772 771 769 767 767 767 768 768 766 766 765 765 767 768 769 771 772 772 770 770 774 774 775 778 780 782 783 785 787 789 791 793 795 797 799 801 802 804 806 807 809 810 812 813 815 816 817 818 819 820 821 822 823 824 826 827 828 829 829 830 831 832 832 833 834 834 835 835 836 836 836 837 837 837 838 838 838
739 749 742 748 771 778 778 792 801 807 817 816 811 809 803 800 793 779 776 778 774 773 770 769 770 768 767 767 765 765 764 764 765 765 766 767 767 769 768 769 773 774 775 777 779 781 782 784 785 786 788 789 791 794 797 799 801 802 804 806 807 809 810 812 813 814 816 817 818 819 820 821 822 823 824 825 826 827 828 829 829 830 831 832 833 833 834 834 834 835 835 836 836 836 837 838 838
733 738 740 748 763 773 776 781 786 796 810 818 821 817 804 791 780 774 776 775 772 772 771 770 770 767 766 766 765 765 764 764 763 763 763 763 764 765 766 768 770 772 777 780 780 780 781 782 784 785 787 788 790 792 794 797 799 800 803 804 806 808 809 810 812 813 814 815 816 817 818 819 820 821 823 823 825 825 826 827 828 829 830 830 832 832 832 833 833 834 834 835 835 836 837 837 836
747 751 754 755 755 760 768 771 772 780 795 811 822 823 804 779 769 770 770 770 769 768 769 770 769 766 766 764 763 763 763 762 761 761 761 760 761 763 764 767 769 771 776 780 780 779 779 780 782 783 785 787 789 791 792 794 796 798 801 802 804 806 807 809 810 811 812 813 814 816 817 818 819 820 821 822 823 824 824 825 826 827 828 829 830 830 831 831 832 833 833 834 835 835 836 836 835
744 749 751 754 756 762 776 783 774 768 780 795 808 816 801 773 764 765 763 765 766 764 767 769 768 767 766 764 762 761 761 761 760 759 759 759 760 761 762 765 768 769 772 776 778 778 778 779 780 781 783 785 787 788 790 792 793 796 798 800 802 804 805 807 808 809 810 811 813 814 815 817 817 818 819 820 821 822 823 824 825 826 827 828 828 829 830 830 831 831 832 833 834 834 835 834 834